Location: Hall+in+Tirol
(47.2830°N, 11.5170°E)
Time: 08:49:43
(UTC+02:00)

Amateur Radio Satellites - All Passes

Search period start: 24 September 2017 08:19
Search period end: 25 September 2017 08:19
Location: Hall+in+Tirol, 47.2830°N, 11.5170°E

Satellite Date Start Highest point End Downlink Frequencies (MHz)
Time Altitude Azimuth
XW-2D 24 Sep 08:30:19 08:33:15 21° 295° (WNW) 08:36:09 145.860 - 145.880
CUBEBUG 2 24 Sep 08:40:26 08:45:05 57° 100° (E) 08:49:46 437.445
UNISAT 6 24 Sep 08:40:52 08:42:44 13° 57° (ENE) 08:44:38 437.425
XW-2F 24 Sep 08:42:44 08:45:17 17° 296° (WNW) 08:47:50 145.980 - 146.000
XW-2B 24 Sep 08:43:02 08:45:31 17° 297° (WNW) 08:48:00 145.730 - 145.750
AO-7 24 Sep 08:46:07 08:47:29 10° 332° (NNW) 08:48:52 .
UWE-3 24 Sep 08:46:53 08:51:18 40° 97° (E) 08:55:42 435.000/436.395/437.385
TIGRISAT 24 Sep 09:03:07 09:06:07 18° 61° (ENE) 09:09:11 435.000
NUDT-PHONESAT 24 Sep 09:05:42 09:07:27 13° 299° (WNW) 09:09:11 437.300
XW-2C 24 Sep 09:06:00 09:06:41 10° 301° (WNW) 09:07:21 145.795 - 145.815
XW-2A 24 Sep 09:13:30 09:16:57 73° 285° (WNW) 09:20:21 145.665 - 145.685
SEEDS 24 Sep 09:15:49 09:19:56 56° 287° (WNW) 09:24:00 437.485
CUTE-I 24 Sep 09:20:22 09:24:09 20° 302° (WNW) 09:27:56 437.470
Oscar 11 24 Sep 09:29:39 09:33:43 37° 97° (E) 09:37:44 .
AO-73 24 Sep 09:30:43 09:35:15 55° 100° (E) 09:39:43 145.935
PRISM 24 Sep 09:31:26 09:34:25 20° 63° (ENE) 09:37:23 437.425
ZACube-1 24 Sep 09:33:44 09:38:20 66° 101° (E) 09:42:53 437.345
AAUSAT CUBESAT 2 24 Sep 09:37:27 09:41:35 71° 285° (WNW) 09:45:39 437.432
HO-68 24 Sep 09:42:34 09:49:24 49° 297° (WNW) 09:56:13 435.675
CUTE 1.7 + AOD 2 24 Sep 09:45:16 09:48:24 20° 296° (WNW) 09:51:30 437.475
FO-29 24 Sep 09:55:53 10:01:23 54° 259° (W) 10:06:32 435.910
UNISAT 6 24 Sep 10:14:22 10:18:44 88° 248° (WSW) 10:23:14 437.425
RS-15 24 Sep 10:14:38 10:25:37 35° 352° (N) 10:36:19 29.354- 29.394
CUBEBUG 2 24 Sep 10:17:54 10:21:18 20° 298° (WNW) 10:24:43 437.445
UWE-3 24 Sep 10:23:40 10:27:34 26° 295° (WNW) 10:31:26 435.000/436.395/437.385
Max Valier Satellite 24 Sep 10:27:26 10:30:38 26° 95° (E) 10:33:48 145.860
TIGRISAT 24 Sep 10:38:07 10:42:23 56° 260° (W) 10:46:48 435.000
O/OREOS (USA 219) 24 Sep 10:45:50 10:48:04 13° 43° (NE) 10:50:17 437.305
DUCHIFAT 1 24 Sep 10:48:05 10:48:36 10° 56° (ENE) 10:49:08 145.980
YUBILEINY 24 Sep 10:51:32 10:54:37 12° 69° (ENE) 10:57:43 435.215
POLYITAN 1 24 Sep 11:00:00 11:02:43 17° 61° (ENE) 11:05:27 437.675
DELFI C3 24 Sep 11:02:27 11:06:24 88° 113° (ESE) 11:10:18 145.870
EO-79 24 Sep 11:03:58 11:06:51 18° 62° (ENE) 11:09:46 145.935-145.965
PRISM 24 Sep 11:05:29 11:09:24 44° 261° (W) 11:13:20 437.425
Oscar 11 24 Sep 11:06:08 11:09:41 25° 295° (WNW) 11:13:12 .
AO-73 24 Sep 11:07:47 11:11:04 20° 298° (WNW) 11:14:21 145.935
M-CUBED/EXP-1 PRIME 24 Sep 11:08:24 11:09:41 11° 54° (NE) 11:10:56 437.505
ZACube-1 24 Sep 11:11:08 11:14:06 17° 299° (WNW) 11:17:03 437.345
AIST 2D 24 Sep 11:16:49 11:20:14 48° 73° (ENE) 11:23:42 435.315
QB50P2 24 Sep 11:16:59 11:20:30 26° 65° (ENE) 11:24:02 145.880/145.840
EO-88 24 Sep 11:26:54 11:30:35 83° 284° (WNW) 11:34:13 145.990 - 145.960
HO-68 24 Sep 11:32:45 11:35:28 13° 318° (NW) 11:38:11 435.675
ESTCUBE 1 24 Sep 11:42:06 11:44:55 16° 90° (E) 11:47:42 437.505/2401.250
NANOSAT C BR1 24 Sep 11:51:21 11:55:21 46° 71° (ENE) 11:59:25 145.865
Max Valier Satellite 24 Sep 12:01:15 12:04:24 26° 293° (WNW) 12:07:32 145.860
DUCHIFAT 1 24 Sep 12:19:20 12:23:31 80° 75° (ENE) 12:27:45 145.980
LO-87 24 Sep 12:21:42 12:25:16 58° 101° (E) 12:28:49 145.935 - 145.965
O/OREOS (USA 219) 24 Sep 12:23:41 12:28:19 75° 63° (ENE) 12:32:55 437.305
AO-7 24 Sep 12:23:42 12:24:53 10° 28° (NNE) 12:26:04 .
RS-15 24 Sep 12:30:38 12:42:07 43° 26° (NNE) 12:53:04 29.354- 29.394
POLYITAN 1 24 Sep 12:33:56 12:38:04 57° 259° (W) 12:42:16 437.675
Gurwin Techsat 1B 24 Sep 12:37:27 12:40:55 18° 57° (ENE) 12:44:24 435.225
EO-79 24 Sep 12:38:09 12:42:15 51° 260° (W) 12:46:24 145.935-145.965
M-CUBED/EXP-1 PRIME 24 Sep 12:39:20 12:43:35 86° 73° (ENE) 12:47:32 437.505
DELFI C3 24 Sep 12:40:03 12:40:29 10° 302° (WNW) 12:40:56 145.870
YUBILEINY 24 Sep 12:40:59 12:49:28 61° 91° (E) 12:57:58 435.215
Oscar 19 24 Sep 12:47:22 12:51:46 29° 63° (ENE) 12:56:11 437.125/150
AIST 2D 24 Sep 12:52:04 12:53:43 13° 270° (W) 12:55:22 435.315
QB50P2 24 Sep 12:52:19 12:56:09 34° 263° (W) 13:00:02 145.880/145.840
BUGSAT 1 24 Sep 12:52:56 12:56:50 50° 71° (ENE) 13:00:48 437.445
ESTCUBE 1 24 Sep 13:17:40 13:22:07 60° 288° (WNW) 13:26:31 437.505/2401.250
NO-84 24 Sep 13:27:28 13:30:59 34° 137° (SE) 13:34:16 435.350 FM
NANOSAT C BR1 24 Sep 13:28:21 13:31:18 19° 268° (W) 13:34:17 145.865
SPROUT 24 Sep 13:39:23 13:43:41 65° 102° (ESE) 13:47:56 437.525
50 SAT 24 Sep 13:41:09 13:42:56 14° 92° (E) 13:44:42 437.505
VELOX 1 24 Sep 13:44:13 13:48:32 52° 101° (E) 13:52:49 145.980
LO-87 24 Sep 13:56:39 13:58:14 12° 298° (WNW) 13:59:48 145.935 - 145.965
ITAMSAT 1 24 Sep 13:57:27 13:58:25 11° 51° (NE) 13:59:24 435.822/435.867
DUCHIFAT 1 24 Sep 13:58:45 13:59:45 11° 273° (W) 14:00:46 145.980
O/OREOS (USA 219) 24 Sep 14:04:48 14:07:06 14° 262° (W) 14:09:23 437.305
AO-7 24 Sep 14:07:58 14:15:07 33° 53° (NE) 14:22:14 .
Gurwin Techsat 1B 24 Sep 14:14:55 14:20:14 80° 256° (WSW) 14:25:36 435.225
M-CUBED/EXP-1 PRIME 24 Sep 14:17:55 14:18:24 10° 265° (W) 14:18:53 437.505
SO-50 24 Sep 14:24:24 14:28:35 39° 119° (ESE) 14:32:47 436.795
Oscar 19 24 Sep 14:25:55 14:30:53 45° 261° (W) 14:35:53 437.125/150
BUGSAT 1 24 Sep 14:30:01 14:32:30 16° 269° (W) 14:35:01 437.445
YUBILEINY 24 Sep 14:39:00 14:46:46 35° 294° (WNW) 14:54:36 435.215
UKube-1 24 Sep 14:43:13 14:47:15 38° 98° (E) 14:51:16 .
RS-15 24 Sep 14:44:01 14:56:09 88° 237° (WSW) 15:07:36 29.354- 29.394
DX 1 24 Sep 14:51:12 14:55:33 70° 103° (ESE) 14:59:52 434.975-435.025
PCSat 24 Sep 14:53:25 14:58:25 40° 114° (ESE) 15:03:27 145.827
NO-84 24 Sep 15:04:46 15:08:21 46° 334° (NNW) 15:11:39 435.350 FM
50 SAT 24 Sep 15:12:30 15:15:36 38° 289° (WNW) 15:18:42 437.505
ITUPSAT 1 24 Sep 15:13:37 15:15:11 11° 87° (E) 15:16:45 437.325
SPROUT 24 Sep 15:16:31 15:19:05 16° 300° (WNW) 15:21:38 437.525
VELOX 1 24 Sep 15:21:29 15:24:37 19° 298° (WNW) 15:27:44 145.980
ITAMSAT 1 24 Sep 15:31:47 15:36:51 60° 70° (ENE) 15:41:57 435.822/435.867
BEESAT 24 Sep 15:47:59 15:51:56 25° 94° (E) 15:55:51 436.000
AO-7 24 Sep 15:58:59 16:07:18 71° 254° (WSW) 16:15:39 .
Gurwin Techsat 1B 24 Sep 15:59:15 16:01:02 12° 274° (W) 16:02:50 435.225
SO-50 24 Sep 16:05:00 16:09:06 33° 319° (NW) 16:13:14 436.795
MOZHAYETS 4 24 Sep 16:13:26 16:17:53 44° 98° (E) 16:22:18
UKube-1 24 Sep 16:19:36 16:23:05 24° 296° (WNW) 16:26:34 .
DX 1 24 Sep 16:28:45 16:31:13 15° 301° (WNW) 16:33:39 434.975-435.025
PCSat 24 Sep 16:36:44 16:41:49 40° 314° (NW) 16:46:57 145.827
CUBESAT XI-V 24 Sep 16:42:08 16:45:35 20° 91° (E) 16:49:00 437.345
NO-84 24 Sep 16:43:33 16:46:18 21° 354° (N) 16:48:53 435.350 FM
HO-68 24 Sep 16:46:15 16:47:30 10° 39° (NE) 16:48:45 435.675
ITUPSAT 1 24 Sep 16:48:51 16:53:43 88° 104° (ESE) 16:58:32 437.325
LilacSat-2 24 Sep 16:55:58 16:56:23 10° 59° (ENE) 16:56:48 437.200
RS-15 24 Sep 16:57:49 17:06:54 27° 259° (W) 17:15:39 29.354- 29.394
DOVE 4 24 Sep 17:05:41 17:09:47 42° 71° (ENE) 17:13:47 437.250
KAITUO 1B 24 Sep 17:11:22 17:11:57 10° 59° (ENE) 17:12:30 145.475/437.950
ITAMSAT 1 24 Sep 17:12:55 17:16:43 20° 269° (W) 17:20:32 435.822/435.867
BEESAT 24 Sep 17:25:19 17:29:52 43° 292° (WNW) 17:34:23 436.000
CUTE-I 24 Sep 17:25:47 17:30:02 25° 61° (ENE) 17:34:18 437.470
XW-2D 24 Sep 17:39:50 17:43:06 27° 68° (ENE) 17:46:23 145.860 - 145.880
SO-50 24 Sep 17:49:24 17:50:56 11° 342° (NNW) 17:52:28 436.795
MOZHAYETS 4 24 Sep 17:51:04 17:54:48 24° 296° (WNW) 17:58:31
XW-2F 24 Sep 17:51:22 17:54:49 32° 69° (ENE) 17:58:17 145.980 - 146.000
XW-2B 24 Sep 17:51:55 17:55:25 34° 70° (ENE) 17:58:57 145.730 - 145.750
AO-7 24 Sep 17:57:02 18:01:33 15° 274° (W) 18:06:08 .
KKS-1 24 Sep 18:05:02 18:09:19 45° 99° (E) 18:13:35 437.445
NUDT-PHONESAT 24 Sep 18:12:01 18:15:34 42° 71° (ENE) 18:19:09 437.300
XW-2C 24 Sep 18:12:58 18:16:46 61° 74° (ENE) 18:20:36 145.795 - 145.815
CUBESAT XI-V 24 Sep 18:18:45 18:23:14 49° 289° (WNW) 18:27:40 437.345
NO-84 24 Sep 18:21:35 18:24:26 27° 16° (NNE) 18:27:06 435.350 FM
PCSat 24 Sep 18:24:14 18:26:47 13° 337° (NNW) 18:29:20 145.827
LilacSat-2 24 Sep 18:26:06 18:30:00 88° 258° (WSW) 18:33:55 437.200
HO-68 24 Sep 18:26:48 18:33:22 41° 61° (ENE) 18:39:57 435.675
STARS 24 Sep 18:27:23 18:31:23 33° 97° (E) 18:35:22 437.465
ITUPSAT 1 24 Sep 18:28:17 18:30:51 15° 304° (WNW) 18:33:25 437.325
SEEDS 24 Sep 18:36:03 18:38:47 17° 62° (ENE) 18:41:33 437.485
KAITUO 1B 24 Sep 18:41:31 18:45:18 84° 256° (WSW) 18:49:08 145.475/437.950
DOVE 4 24 Sep 18:44:26 18:47:41 20° 267° (W) 18:50:52 437.250
AAUSAT CUBESAT 2 24 Sep 18:57:13 18:59:12 13° 60° (ENE) 19:01:11 437.432
BEESAT 3 24 Sep 19:00:34 19:01:03 10° 108° (ESE) 19:01:32 437.485
ZACube-1 24 Sep 19:00:38 19:01:01 10° 55° (NE) 19:01:22 437.345
CUTE 1.7 + AOD 2 24 Sep 19:03:58 19:08:04 47° 71° (ENE) 19:12:12 437.475
CUTE-I 24 Sep 19:04:34 19:09:46 54° 260° (W) 19:14:59 437.470
XW-2D 24 Sep 19:13:56 19:17:13 26° 265° (W) 19:20:32 145.860 - 145.880
XW-2F 24 Sep 19:25:59 19:29:00 22° 267° (W) 19:32:02 145.980 - 146.000
XW-2B 24 Sep 19:26:46 19:29:42 21° 267° (W) 19:32:39 145.730 - 145.750
CUBEBUG 2 24 Sep 19:41:21 19:45:34 65° 74° (ENE) 19:49:58 437.445
KKS-1 24 Sep 19:42:10 19:45:37 22° 297° (WNW) 19:49:03 437.445
UWE-3 24 Sep 19:46:38 19:50:45 44° 70° (ENE) 19:55:01 435.000/436.395/437.385
XW-2A 24 Sep 19:47:06 19:50:26 57° 74° (ENE) 19:53:50 145.665 - 145.685
NUDT-PHONESAT 24 Sep 19:47:13 19:49:39 16° 269° (W) 19:52:06 437.300
Tancredo 1 24 Sep 19:47:59 19:50:17 26° 143° (SE) 19:52:36 437.200
XW-2C 24 Sep 19:49:45 19:51:21 12° 271° (W) 19:52:56 145.795 - 145.815
AO-85 24 Sep 19:53:07 19:54:23 11° 109° (ESE) 19:55:39 145.980
NO-84 24 Sep 19:58:57 20:02:02 66° 216° (SW) 20:04:55 435.350 FM
STARS 24 Sep 20:03:51 20:07:39 29° 294° (WNW) 20:11:26 437.465
STRAND 1 24 Sep 20:07:29 20:12:07 32° 96° (E) 20:16:42 437.568
SEEDS 24 Sep 20:09:54 20:14:04 56° 260° (W) 20:18:15 437.485
HO-68 24 Sep 20:14:11 20:21:00 47° 261° (W) 20:27:54 435.675
Oscar 11 24 Sep 20:27:04 20:31:10 42° 70° (ENE) 20:35:18 .
AO-73 24 Sep 20:28:44 20:33:01 60° 73° (ENE) 20:37:27 145.935
AAUSAT CUBESAT 2 24 Sep 20:29:56 20:34:06 74° 258° (WSW) 20:38:16 437.432
ZACube-1 24 Sep 20:32:04 20:36:24 73° 75° (ENE) 20:40:54 437.345
BEESAT 3 24 Sep 20:33:53 20:37:54 87° 126° (SE) 20:41:59 437.485
ISS 24 Sep 20:36:09 20:38:14 16° 136° (SE) 20:40:19 437.550
CUTE 1.7 + AOD 2 24 Sep 20:41:06 20:44:09 19° 269° (W) 20:47:13 437.475
BEESAT 2 24 Sep 20:43:36 20:47:18 37° 119° (ESE) 20:51:03 435.950
FO-29 24 Sep 21:01:33 21:04:40 15° 89° (E) 21:07:57 435.910
Max Valier Satellite 24 Sep 21:09:28 21:12:12 20° 65° (ENE) 21:14:58 145.860
SO-50 24 Sep 21:12:26 21:15:47 20° 32° (NNE) 21:19:11 436.795
nSIGHT-1 24 Sep 21:12:48 21:15:44 33° 144° (SE) 21:18:42 .
CUBEBUG 2 24 Sep 21:20:26 21:22:42 14° 272° (W) 21:25:01 437.445
Tancredo 1 24 Sep 21:22:00 21:24:38 52° 341° (NNW) 21:27:17 437.200
XW-2A 24 Sep 21:23:05 21:23:31 10° 271° (W) 21:23:57 145.665 - 145.685
UWE-3 24 Sep 21:24:11 21:27:26 21° 269° (W) 21:30:47 435.000/436.395/437.385
AO-85 24 Sep 21:30:14 21:34:07 78° 308° (NW) 21:38:06 145.980
STRAND 1 24 Sep 21:46:36 21:51:20 38° 294° (WNW) 21:56:03 437.568
DELFI C3 24 Sep 21:50:11 21:54:07 75° 75° (ENE) 21:58:04 145.870
PCSat 24 Sep 21:55:03 21:58:40 18° 31° (NNE) 22:02:17 145.827
UNISAT 6 24 Sep 22:03:36 22:06:40 17° 90° (E) 22:09:42 437.425
Oscar 11 24 Sep 22:04:07 22:07:29 22° 268° (W) 22:10:52 .
EO-88 24 Sep 22:06:59 22:10:37 65° 75° (ENE) 22:14:17 145.990 - 145.960
AO-73 24 Sep 22:07:02 22:09:41 16° 271° (W) 22:12:23 145.935
ISS 24 Sep 22:11:01 22:14:18 85° 149° (SSE) 22:17:36 437.550
ZACube-1 24 Sep 22:11:11 22:13:15 13° 273° (W) 22:15:19 437.345
BEESAT 3 24 Sep 22:13:14 22:16:01 18° 327° (NNW) 22:18:49 437.485
BEESAT 2 24 Sep 22:21:30 22:25:06 30° 318° (NW) 22:28:44 435.950
TIGRISAT 24 Sep 22:26:24 22:30:18 25° 93° (E) 22:34:12 435.000
Max Valier Satellite 24 Sep 22:42:22 22:45:49 35° 263° (W) 22:49:18 145.860
PRISM 24 Sep 22:44:00 22:46:55 19° 93° (E) 22:49:49 437.425
ESTCUBE 1 24 Sep 22:44:17 22:47:49 23° 63° (ENE) 22:51:21 437.505/2401.250
FO-29 24 Sep 22:44:55 22:50:22 85° 286° (WNW) 22:56:26 435.910
YUBILEINY 24 Sep 22:47:07 22:55:01 36° 66° (ENE) 23:02:52 435.215
nSIGHT-1 24 Sep 22:48:47 22:51:58 55° 342° (NNW) 22:55:11 .
SO-50 24 Sep 22:52:18 22:56:54 87° 55° (NE) 23:01:33 436.795
Tancredo 1 24 Sep 22:57:00 22:59:26 30° 1° (N) 23:01:53 437.200
LO-87 24 Sep 23:00:30 23:03:45 36° 70° (ENE) 23:07:03 145.935 - 145.965
AO-85 24 Sep 23:12:50 23:15:12 15° 330° (NNW) 23:17:37 145.980
DELFI C3 24 Sep 23:28:46 23:29:23 10° 272° (W) 23:30:00 145.870
PCSat 24 Sep 23:37:44 23:43:09 64° 53° (NE) 23:48:32 145.827
UNISAT 6 24 Sep 23:39:08 23:43:45 62° 287° (WNW) 23:48:23 437.425
EO-88 24 Sep 23:44:02 23:44:42 10° 272° (W) 23:45:22 145.990 - 145.960
ISS 24 Sep 23:47:53 23:51:00 38° 353° (N) 23:54:08 437.550
TIGRISAT 25 Sep 00:02:43 00:07:06 41° 291° (WNW) 00:11:30 435.000
DUCHIFAT 1 25 Sep 00:02:54 00:03:30 10° 87° (E) 00:04:06 145.980
AIST 2D 25 Sep 00:11:40 00:15:00 38° 98° (E) 00:18:17 435.315
POLYITAN 1 25 Sep 00:16:08 00:19:12 19° 92° (E) 00:22:14 437.675
DX 1 25 Sep 00:16:32 00:18:11 12° 57° (ENE) 00:19:51 434.975-435.025
PRISM 25 Sep 00:18:32 00:22:23 42° 290° (WNW) 00:26:13 437.425
ESTCUBE 1 25 Sep 00:20:00 00:24:21 45° 261° (W) 00:28:44 437.505/2401.250
EO-79 25 Sep 00:20:00 00:23:13 20° 92° (E) 00:26:25 145.935-145.965
nSIGHT-1 25 Sep 00:25:37 00:28:41 36° 3° (N) 00:31:44 .
Tancredo 1 25 Sep 00:31:32 00:34:13 60° 21° (NNE) 00:36:52 437.200
FO-29 25 Sep 00:31:48 00:34:51 15° 304° (NW) 00:38:00 435.910
QB50P2 25 Sep 00:33:35 00:37:23 30° 96° (E) 00:41:10 145.880/145.840
SO-50 25 Sep 00:34:27 00:36:43 14° 250° (WSW) 00:39:00 436.795
LO-87 25 Sep 00:35:00 00:37:20 16° 268° (W) 00:39:40 145.935 - 145.965
SPROUT 25 Sep 00:35:15 00:39:28 72° 74° (ENE) 00:43:44 437.525
YUBILEINY 25 Sep 00:43:46 00:52:17 60° 269° (W) 01:00:49 435.215
VELOX 1 25 Sep 00:44:04 00:48:25 68° 73° (ENE) 00:52:49 145.980
NANOSAT C BR1 25 Sep 01:07:40 01:11:53 55° 101° (E) 01:16:04 145.865
PCSat 25 Sep 01:21:57 01:26:05 23° 252° (WSW) 01:30:12 145.827
ISS 25 Sep 01:24:41 01:27:54 46° 14° (NNE) 01:31:06 437.550
DUCHIFAT 1 25 Sep 01:35:29 01:39:45 86° 289° (WNW) 01:44:01 145.980
UKube-1 25 Sep 01:40:17 01:44:25 48° 70° (ENE) 01:48:34 .
50 SAT 25 Sep 01:44:34 01:47:52 73° 257° (WSW) 01:51:11 437.505
AIST 2D 25 Sep 01:45:36 01:47:54 17° 295° (WNW) 01:50:12 435.315
DX 1 25 Sep 01:49:21 01:53:41 90° 102° (ESE) 01:58:03 434.975-435.025
M-CUBED/EXP-1 PRIME 25 Sep 01:49:26 01:52:23 29° 102° (ESE) 01:55:16 437.505
POLYITAN 1 25 Sep 01:51:05 01:55:14 48° 289° (WNW) 01:59:21 437.675
EO-79 25 Sep 01:55:06 01:59:10 43° 290° (WNW) 02:03:13 145.935-145.965
nSIGHT-1 25 Sep 02:02:03 02:05:19 72° 23° (NNE) 02:08:34 .
BUGSAT 1 25 Sep 02:06:18 02:10:27 57° 101° (E) 02:14:38 437.445
Tancredo 1 25 Sep 02:06:20 02:08:29 21° 218° (SW) 02:10:38 437.200
QB50P2 25 Sep 02:09:24 02:13:08 29° 293° (WNW) 02:16:51 145.880/145.840
SPROUT 25 Sep 02:14:07 02:15:52 12° 272° (W) 02:17:38 437.525
ITUPSAT 1 25 Sep 02:22:20 02:25:51 21° 61° (ENE) 02:29:24 437.325
VELOX 1 25 Sep 02:23:04 02:25:20 14° 271° (W) 02:27:37 145.980
Gurwin Techsat 1B 25 Sep 02:28:10 02:32:55 32° 95° (E) 02:37:37 435.225
Oscar 19 25 Sep 02:33:57 02:39:00 50° 100° (E) 02:43:59 437.125/150
O/OREOS (USA 219) 25 Sep 02:39:04 02:43:22 46° 109° (ESE) 02:47:45 437.305
AO-85 25 Sep 02:39:16 02:39:59 10° 21° (NNE) 02:40:42 145.980
YUBILEINY 25 Sep 02:44:08 02:47:06 12° 291° (WNW) 02:50:06 435.215
NANOSAT C BR1 25 Sep 02:44:20 02:47:11 18° 298° (WNW) 02:50:01 145.865
BEESAT 25 Sep 02:57:02 03:01:29 41° 68° (ENE) 03:05:59 436.000
ISS 25 Sep 03:01:13 03:04:25 48° 213° (SSW) 03:07:36 437.550
BEESAT 3 25 Sep 03:10:45 03:13:57 22° 37° (NE) 03:17:05 437.485
DUCHIFAT 1 25 Sep 03:13:29 03:14:43 11° 303° (WNW) 03:15:58 145.980
UKube-1 25 Sep 03:17:40 03:20:42 19° 268° (W) 03:23:45 .
MOZHAYETS 4 25 Sep 03:17:55 03:22:28 60° 72° (ENE) 03:27:04
BEESAT 2 25 Sep 03:21:17 03:23:29 14° 29° (NNE) 03:25:41 435.950
M-CUBED/EXP-1 PRIME 25 Sep 03:24:15 03:26:42 19° 301° (WNW) 03:29:06 437.505
nSIGHT-1 25 Sep 03:38:46 03:41:24 23° 220° (SW) 03:44:02 .
ITAMSAT 1 25 Sep 03:42:33 03:45:44 16° 89° (E) 03:48:54 435.822/435.867
BUGSAT 1 25 Sep 03:42:42 03:45:24 17° 299° (WNW) 03:48:07 437.445
CUBESAT XI-V 25 Sep 03:48:03 03:52:05 29° 66° (ENE) 03:56:08 437.345
AO-7 25 Sep 03:57:19 04:04:37 33° 95° (E) 04:11:50 .
ITUPSAT 1 25 Sep 03:58:36 04:03:18 56° 259° (W) 04:08:03 437.325
Gurwin Techsat 1B 25 Sep 04:07:59 04:12:56 40° 294° (WNW) 04:17:52 435.225
Oscar 19 25 Sep 04:13:49 04:18:01 26° 298° (WNW) 04:22:12 437.125/150
AO-85 25 Sep 04:17:38 04:21:36 34° 43° (NE) 04:25:50 145.980
O/OREOS (USA 219) 25 Sep 04:19:19 04:23:01 24° 309° (NW) 04:26:45 437.305
BEESAT 25 Sep 04:35:25 04:39:24 26° 266° (W) 04:43:24 436.000
BEESAT 3 25 Sep 04:47:53 04:51:49 57° 238° (WSW) 04:55:40 437.485
MOZHAYETS 4 25 Sep 04:56:59 05:00:01 17° 270° (W) 05:03:04
BEESAT 2 25 Sep 04:57:59 05:02:02 63° 49° (NE) 05:06:02 435.950
KKS-1 25 Sep 05:05:45 05:10:06 62° 72° (ENE) 05:14:30 437.445
RS-15 25 Sep 05:10:08 05:21:26 46° 110° (ESE) 05:32:46 29.354- 29.394
ITAMSAT 1 25 Sep 05:20:33 05:25:46 76° 288° (WNW) 05:30:59 435.822/435.867
CUBESAT XI-V 25 Sep 05:25:02 05:29:21 36° 264° (W) 05:33:42 437.345
STARS 25 Sep 05:26:40 05:30:47 43° 69° (ENE) 05:34:56 437.465
AO-7 25 Sep 05:49:43 05:57:54 66° 296° (WNW) 06:06:04 .
STRAND 1 25 Sep 05:51:53 05:53:06 11° 52° (NE) 05:54:20 437.568
AO-85 25 Sep 05:57:56 06:02:04 39° 241° (WSW) 06:06:29 145.980
BEESAT 2 25 Sep 06:36:50 06:39:19 16° 248° (WSW) 06:41:47 435.950
DOVE 4 25 Sep 06:37:50 06:42:04 77° 102° (ESE) 06:46:30 437.250
XW-2D 25 Sep 06:42:56 06:46:07 25° 94° (E) 06:49:16 145.860 - 145.880
KKS-1 25 Sep 06:44:28 06:47:05 15° 270° (W) 06:49:42 437.445
XW-2F 25 Sep 06:54:05 06:57:27 30° 96° (E) 07:00:47 145.980 - 146.000
XW-2B 25 Sep 06:55:08 06:58:37 32° 96° (E) 07:02:01 145.730 - 145.750
ITAMSAT 1 25 Sep 07:01:57 07:04:23 13° 306° (NW) 07:06:48 435.822/435.867
STARS 25 Sep 07:03:59 07:07:18 21° 267° (W) 07:10:40 437.465
NUDT-PHONESAT 25 Sep 07:12:42 07:16:12 37° 97° (E) 07:19:40 437.300
XW-2C 25 Sep 07:16:22 07:20:09 58° 101° (E) 07:23:54 145.795 - 145.815
CUTE-I 25 Sep 07:18:08 07:23:17 47° 99° (E) 07:28:25 437.470
RS-15 25 Sep 07:21:13 07:33:32 68° 315° (NW) 07:45:48 29.354- 29.394
STRAND 1 25 Sep 07:26:16 07:31:17 63° 71° (ENE) 07:36:21 437.568
LilacSat-2 25 Sep 07:30:19 07:34:11 90° 284° (WNW) 07:37:59 437.200
CUBEBUG 2 25 Sep 07:30:23 07:32:27 13° 87° (E) 07:34:31 437.445
HO-68 25 Sep 07:38:12 07:44:27 31° 94° (E) 07:50:39 435.675
KAITUO 1B 25 Sep 07:43:18 07:47:05 90° 106° (ESE) 07:50:48 145.475/437.950
AO-7 25 Sep 07:43:49 07:49:12 19° 318° (NW) 07:54:35 .
SEEDS 25 Sep 07:51:07 07:54:08 19° 91° (E) 07:57:07 437.485
AAUSAT CUBESAT 2 25 Sep 08:10:10 08:12:19 14° 89° (E) 08:14:27 437.432
AO-73 25 Sep 08:16:39 08:17:00 10° 85° (E) 08:17:21 145.935
